Home > Weather > Pocatello > Past weeks

Flag for USA Past Weather in Pocatello, Idaho, USA — Yesterday and Last 2 Weeks

Now
65 °F

Sunny.


Feels Like: 65 °F
Forecast: 49 / 94 °F
Wind: 3 mph from Southeast

Location: Pocatello Regional Airport

Current Time: Jun 27, 2016 at 12:02:12 AM

Latest Report: Jun 26, 2016 at 10:53 PM


Visibility: 10 mi

Pressure: 30.09 "Hg (25.66 "Hg at 1357m altitude)

Humidity: 33%

Dew Point: 35 °F

Location of PocatelloLocation

Past Weather in Pocatello — Graph

°F

Pocatello Temperature Yesterday

Maximum temperature yesterday: 88 °F (at 5:53 PM)
Minimum temperature yesterday: 39 °F (at 2:53 AM)
Average temperature yesterday: 65 °F

High & Low Weather Summary for the Past Weeks

 TemperatureHumidityPressure
High94 °F (Jun 20, 6:53 PM)93% (Jun 17, 4:53 AM)30.29 "Hg (Jun 17, 4:53 AM)
Low38 °F (Jun 17, 4:53 AM)8% (Jun 18, 3:53 PM)29.54 "Hg (Jun 15, 5:53 PM)
Average66 °F41%29.98 "Hg
* Reported Jun 11 10:53 PM — Jun 26 10:53 PM, Pocatello, Weather by CustomWeather, © 2016

Note: Actual official high and low records may vary slightly from our data, if they occured in-between our weather recording intervals... More about our weather records

Advertising

Pocatello Weather History for the Previous 24 Hours

Scroll right to see more
 ConditionsComfort  
Time TempWeatherWind HumidityBarometerVisibility
10:53 PM
Sun, Jun 26
65 °FSunny.3 mph33%30.09 "Hg10 mi
9:53 PM68 °FSunny.6 mph26%30.07 "Hg10 mi
8:53 PM73 °FSunny.7 mph29%30.07 "Hg10 mi
7:53 PM84 °FSunny.7 mph11%30.05 "Hg10 mi
6:53 PM86 °FSunny.7 mph10%30.07 "Hg10 mi
5:53 PM88 °FSunny.7 mph10%30.08 "Hg10 mi
4:53 PM86 °FSunny.3 mph12%30.10 "Hg10 mi
3:53 PM84 °FSunny.9 mph17%30.12 "Hg10 mi
2:53 PM84 °FSunny.9 mph15%30.14 "Hg10 mi
1:53 PM81 °FSunny.8 mph15%30.15 "Hg10 mi
12:53 PM79 °FSunny.9 mph27%30.14 "Hg10 mi
11:53 AM75 °FSunny.8 mph31%30.16 "Hg10 mi
10:53 AM71 °FSunny.6 mph35%30.18 "Hg10 mi
9:53 AM67 °FSunny.6 mph36%30.19 "Hg10 mi
8:53 AM61 °FSunny.No wind39%30.17 "Hg10 mi
7:53 AM55 °FSunny.No wind45%30.16 "Hg10 mi
6:53 AM42 °FClear.6 mph73%30.18 "Hg10 mi
5:53 AM42 °FClear.No wind71%30.16 "Hg10 mi
4:53 AM40 °FClear.3 mph80%30.15 "Hg10 mi
3:53 AM41 °FClear.6 mph80%30.14 "Hg10 mi
2:53 AM39 °FClear.3 mph82%30.15 "Hg10 mi
1:53 AM44 °FClear.5 mph73%30.14 "Hg10 mi
12:53 AM50 °FClear.6 mph50%30.13 "Hg10 mi
Weather by CustomWeather, © 2016

See weather overviewHow to use our weather pages